Погода в Коммунаре

Россия / Тюменская область     56°34′00″N   65°32′11″E
темп.,
°C
ветер,
м/с
пор.,
м/с
влажн.,
%
обл.,
%
осадки,
мм/ч
давл.,
гПа
погр.,
м
21 апреля, ср
ср2123:00+3зсз47615 0.0 1027106
02:00+1зсз410704 0.0 1027161
05:000сз36815 0.0 1029107
08:00+4с35705 0.0 1030300
11:00+9с355747 0.0 10311312
14:00+10с4550100 0.0 10311716
17:00+11с444775 0.0 10321667
20:00+7всв34625 0.0 103466
22 апреля, чт
чт2223:00+5в33675 0.0 103626
02:00+3ююв37665 0.0 1036129
05:00+2ююв36695 0.0 1038104
08:00+5ююв58585 0.0 1039325
11:00+10ююв67465 0.0 1038957
14:00+13ю6742100 0.0 10371703
17:00+13ю6745100 0.0 10371629
20:00+10ююв61255100 0.0 1037341
23 апреля, пт
пт2323:00+8ююв61455100 0.0 1037412
02:00+7ююв61352100 0.0 1036373
05:00+6ююв41160100 0.0 1036252
08:00+8ю61158100 0.0 1036426
11:00+11ю6848100 0.0 1036695
14:00+11ю6945100 0.0 1035897
17:00+12ююв684290 0.0 10351170
20:00+9ююв495099 0.0 1034180
24 апреля, сб
сб2423:00+7ююв51251100 0.0 1033286
02:00+7ююв41053100 0.0 1032251
05:00+6ююв3759100 0.0 1031163
08:00+7ююв4655100 0.0 1030223
11:00+10ююв4646100 0.0 1029508
14:00+12ююв5741100 0.0 1028917
17:00+12ююв6840100 0.0 10271047
20:00+9ююв4950100 0.0 1026352
25 апреля, вс
вс2523:00+8ююв51253100 0.0 1024495
02:00+7юв3960100 0.0 1022280
05:00+5вюв4106511 0.0 1020247
08:00+8юв6115261 0.0 1018580
11:00+12ююв71039100 0.0 10151147
14:00+14ю81048100 0.0 10141785
17:00+8ю5880100 0.4 10141126
20:00+8ююз4888100 0.8 1013654